When you browse on this site, cookies collect data to enhance your experience and personalize the content and advertising you see.
Visit our Privacy Policy to learn more. By continuing to use the site, you agree to this use of cookies and data.
  • In Romania
  • List of Countries
  • For 7 days
  • Water Temperature
  • Weather Map
  • Weather Widgets
  • user-avatar
    Login

    Hourly Weather Kambia

    Today, 3 April, Friday

    Time Temperature Precipitation Wind Pressure Humidity
    00:00 +29°C° 0 mm 1 mps 754 mmHg 80%
    01:00 +28°C° 0 mm 1 mps 754 mmHg 81%
    02:00 +28°C° 0 mm 1 mps 753 mmHg 83%
    03:00 +28°C° 0 mm 1 mps 753 mmHg 84%
    04:00 +28°C° 0 mm 1 mps 753 mmHg 84%
    05:00 +27°C° 0 mm 2 mps 753 mmHg 85%
    06:00 +29°C° 0 mm 2 mps 754 mmHg 78%
    07:00 +30°C° 0 mm 2 mps 754 mmHg 71%
    08:00 +32°C° 0 mm 2 mps 754 mmHg 65%
    09:00 +35°C° 0 mm 2 mps 754 mmHg 57%
    10:00 +37°C° 0 mm 2 mps 754 mmHg 49%
    11:00 +39°C° 0 mm 2 mps 753 mmHg 41%
    12:00 +40°C° 0 mm 2 mps 753 mmHg 39%
    13:00 +40°C° 0 mm 3 mps 752 mmHg 37%
    14:00 +42°C° 0 mm 3 mps 751 mmHg 35%
    15:00 +38°C° 0 mm 3 mps 751 mmHg 44%
    16:00 +36°C° 0 mm 4 mps 751 mmHg 53%
    17:00 +33°C° 0 mm 5 mps 751 mmHg 62%
    18:00 +32°C° 0 mm 4 mps 752 mmHg 67%
    19:00 +30°C° 0 mm 4 mps 752 mmHg 72%
    20:00 +29°C° 0 mm 4 mps 753 mmHg 78%
    21:00 +29°C° 0 mm 3 mps 754 mmHg 78%
    22:00 +29°C° 0 mm 3 mps 754 mmHg 79%
    23:00 +29°C° 0 mm 2 mps 755 mmHg 80%

    Tomorrow, 4 April, Saturday

    Time Temperature Precipitation Wind Pressure Humidity
    00:00 +29°C° 0 mm 2 mps 754 mmHg 81%
    01:00 +29°C° 0 mm 2 mps 754 mmHg 83%
    02:00 +28°C° 0 mm 2 mps 754 mmHg 84%
    03:00 +28°C° 0 mm 1 mps 754 mmHg 85%
    04:00 +28°C° 0 mm 1 mps 754 mmHg 86%
    05:00 +28°C° 0 mm 1 mps 754 mmHg 87%
    06:00 +29°C° 0 mm 1 mps 754 mmHg 80%
    07:00 +30°C° 0 mm 2 mps 755 mmHg 72%
    08:00 +32°C° 0 mm 2 mps 755 mmHg 65%
    09:00 +35°C° 0 mm 2 mps 755 mmHg 58%
    10:00 +37°C° 0 mm 2 mps 755 mmHg 50%
    11:00 +39°C° 0 mm 2 mps 754 mmHg 42%
    12:00 +39°C° 0 mm 2 mps 754 mmHg 40%
    13:00 +40°C° 0 mm 2 mps 753 mmHg 37%
    14:00 +42°C° 0 mm 3 mps 752 mmHg 34%
    15:00 +39°C° 0 mm 3 mps 752 mmHg 39%
    16:00 +37°C° 0 mm 4 mps 752 mmHg 45%
    17:00 +36°C° 0 mm 4 mps 751 mmHg 50%
    18:00 +34°C° 0 mm 4 mps 752 mmHg 57%
    19:00 +33°C° 0 mm 3 mps 753 mmHg 65%
    20:00 +30°C° 0 mm 3 mps 754 mmHg 72%
    21:00 +30°C° 0 mm 2 mps 754 mmHg 75%
    22:00 +29°C° 0 mm 2 mps 754 mmHg 78%
    23:00 +29°C° 0 mm 2 mps 754 mmHg 80%

    Day after tomorrow, 5 April, Sunday

    Time Temperature Precipitation Wind Pressure Humidity
    00:00 +29°C° 0 mm 2 mps 754 mmHg 82%
    01:00 +28°C° 0 mm 2 mps 754 mmHg 83%
    02:00 +28°C° 0 mm 2 mps 754 mmHg 84%
    03:00 +28°C° 0 mm 2 mps 754 mmHg 86%
    04:00 +28°C° 0 mm 1 mps 754 mmHg 87%
    05:00 +28°C° 0 mm 1 mps 754 mmHg 88%
    06:00 +29°C° 0 mm 1 mps 755 mmHg 81%
    07:00 +30°C° 0 mm 1 mps 755 mmHg 73%
    08:00 +32°C° 0 mm 1 mps 756 mmHg 65%
    09:00 +34°C° 0 mm 1 mps 755 mmHg 57%
    10:00 +37°C° 0 mm 1 mps 755 mmHg 48%
    11:00 +40°C° 0 mm 1 mps 755 mmHg 40%
    12:00 +41°C° 0 mm 2 mps 754 mmHg 37%
    13:00 +41°C° 0 mm 2 mps 753 mmHg 35%
    14:00 +43°C° 0 mm 3 mps 752 mmHg 33%
    15:00 +39°C° 0 mm 3 mps 752 mmHg 41%
    16:00 +37°C° 0 mm 4 mps 752 mmHg 49%
    17:00 +34°C° 0 mm 4 mps 752 mmHg 57%
    18:00 +33°C° 0 mm 4 mps 752 mmHg 63%
    19:00 +32°C° 0 mm 4 mps 753 mmHg 69%
    20:00 +30°C° 0 mm 3 mps 753 mmHg 76%
    21:00 +29°C° 0 mm 3 mps 754 mmHg 78%
    22:00 +29°C° 0 mm 2 mps 754 mmHg 80%
    23:00 +29°C° 0 mm 2 mps 755 mmHg 82%

    6 April, Monday

    Time Temperature Precipitation Wind Pressure Humidity
    00:00 +29°C° 0 mm 2 mps 755 mmHg 83%
    01:00 +28°C° 0 mm 1 mps 754 mmHg 84%
    02:00 +28°C° 0 mm 1 mps 754 mmHg 85%
    03:00 +28°C° 0 mm 1 mps 754 mmHg 86%
    04:00 +28°C° 0 mm 1 mps 754 mmHg 87%
    05:00 +27°C° 0 mm 1 mps 754 mmHg 88%
    06:00 +29°C° 0 mm 1 mps 754 mmHg 81%
    07:00 +30°C° 0 mm 2 mps 755 mmHg 74%
    08:00 +31°C° 0 mm 2 mps 755 mmHg 67%
    09:00 +34°C° 0 mm 2 mps 755 mmHg 59%
    10:00 +36°C° 0 mm 2 mps 755 mmHg 51%
    11:00 +38°C° 0 mm 3 mps 755 mmHg 44%
    12:00 +38°C° 0 mm 3 mps 754 mmHg 42%
    13:00 +40°C° 0 mm 4 mps 753 mmHg 41%
    14:00 +40°C° 0 mm 4 mps 753 mmHg 39%
    15:00 +38°C° 0 mm 4 mps 752 mmHg 44%
    16:00 +36°C° 0 mm 4 mps 752 mmHg 50%
    17:00 +34°C° 0 mm 4 mps 752 mmHg 56%
    18:00 +33°C° 0 mm 4 mps 752 mmHg 62%
    19:00 +31°C° 0 mm 3 mps 753 mmHg 69%
    20:00 +29°C° 0 mm 3 mps 754 mmHg 76%
    21:00 +29°C° 0 mm 2 mps 754 mmHg 77%
    22:00 +29°C° 0 mm 2 mps 755 mmHg 79%
    23:00 +28°C° 0 mm 2 mps 755 mmHg 81%

    7 April, Tuesday

    Time Temperature Precipitation Wind Pressure Humidity
    00:00 +28°C° 0 mm 1 mps 755 mmHg 82%
    01:00 +28°C° 0 mm 1 mps 754 mmHg 83%
    02:00 +28°C° 0 mm 1 mps 754 mmHg 84%
    03:00 +27°C° 0 mm 1 mps 754 mmHg 85%
    04:00 +27°C° 0 mm 1 mps 754 mmHg 86%
    05:00 +27°C° 0 mm 1 mps 754 mmHg 87%
    06:00 +28°C° 0 mm 1 mps 754 mmHg 80%
    07:00 +30°C° 0 mm 1 mps 755 mmHg 73%
    08:00 +31°C° 0 mm 2 mps 755 mmHg 66%
    09:00 +34°C° 0 mm 2 mps 755 mmHg 59%
    10:00 +36°C° 0 mm 2 mps 755 mmHg 53%
    11:00 +37°C° 0 mm 3 mps 754 mmHg 46%
    12:00 +38°C° 0 mm 3 mps 754 mmHg 45%
    13:00 +38°C° 0 mm 4 mps 753 mmHg 44%
    14:00 +38°C° 0 mm 4 mps 752 mmHg 42%
    15:00 +37°C° 0.1 mm 4 mps 752 mmHg 47%
    16:00 +36°C° 0.1 mm 4 mps 752 mmHg 51%
    17:00 +34°C° 0.1 mm 4 mps 752 mmHg 55%
    18:00 +33°C° 0.2 mm 4 mps 753 mmHg 63%
    19:00 +30°C° 0.2 mm 3 mps 754 mmHg 70%
    20:00 +29°C° 0.2 mm 2 mps 754 mmHg 78%
    21:00 +28°C° 0 mm 2 mps 755 mmHg 80%
    22:00 +28°C° 0 mm 2 mps 755 mmHg 81%
    23:00 +28°C° 0 mm 2 mps 755 mmHg 83%

    8 April, Wednesday

    Time Temperature Precipitation Wind Pressure Humidity
    00:00 +28°C° 0 mm 1 mps 755 mmHg 84%
    01:00 +27°C° 0 mm 1 mps 754 mmHg 85%
    02:00 +27°C° 0 mm 1 mps 754 mmHg 87%
    03:00 +27°C° 0 mm 1 mps 754 mmHg 88%
    04:00 +27°C° 0 mm 1 mps 754 mmHg 88%
    05:00 +26°C° 0 mm 1 mps 753 mmHg 89%
    06:00 +28°C° 0 mm 1 mps 754 mmHg 82%
    07:00 +29°C° 0 mm 2 mps 754 mmHg 75%
    08:00 +31°C° 0 mm 2 mps 755 mmHg 68%
    09:00 +33°C° 0 mm 3 mps 755 mmHg 61%
    10:00 +35°C° 0 mm 3 mps 755 mmHg 54%
    11:00 +37°C° 0 mm 3 mps 754 mmHg 48%
    12:00 +37°C° 0 mm 3 mps 754 mmHg 46%
    13:00 +37°C° 0 mm 4 mps 753 mmHg 45%
    14:00 +38°C° 0 mm 4 mps 752 mmHg 44%
    15:00 +36°C° 0.1 mm 4 mps 752 mmHg 49%
    16:00 +35°C° 0.1 mm 4 mps 752 mmHg 54%
    17:00 +33°C° 0.1 mm 4 mps 752 mmHg 59%
    18:00 +31°C° 0.3 mm 3 mps 753 mmHg 65%
    19:00 +30°C° 0.3 mm 3 mps 754 mmHg 72%
    20:00 +28°C° 0.3 mm 2 mps 754 mmHg 79%
    21:00 +28°C° 0 mm 2 mps 754 mmHg 80%
    22:00 +28°C° 0 mm 2 mps 754 mmHg 81%
    23:00 +28°C° 0 mm 2 mps 755 mmHg 82%
    Show more